This is the latest recevied weather packets stored in our database for station/object W4DEX-2. If no packets are shown the sender has not sent any weather packets the latest 10 day(s).
| Time | Temp. | Humidity | Pressure | Rain* | Wind** | Luminosity | Snow |
|---|---|---|---|---|---|---|---|
| 1778057103 | 16.67° C | 71% | 1013.5 hPa | 0 mm | 4.92 m/s, 176° | - | - |
| 1778056803 | 16.67° C | 70% | 1013.5 hPa | 0 mm | 5.36 m/s, 175° | - | - |
| 1778056502 | 16.67° C | 70% | 1013.5 hPa | 0 mm | 5.81 m/s, 173° | - | - |
| 1778056202 | 16.67° C | 70% | 1013.7 hPa | 0 mm | 5.36 m/s, 175° | - | - |
| 1778055903 | 16.67° C | 70% | 1013.8 hPa | 0 mm | 5.81 m/s, 178° | - | - |
| 1778055302 | 16.67° C | 70% | 1013.8 hPa | 0 mm | 5.36 m/s, 176° | - | - |
| 1778055002 | 16.67° C | 70% | 1013.8 hPa | 0 mm | 4.92 m/s, 180° | - | - |
| 1778054702 | 16.11° C | 70% | 1013.8 hPa | 0 mm | 5.81 m/s, 174° | - | - |
| 1778054102 | 16.67° C | 70% | 1013.8 hPa | 0 mm | 4.92 m/s, 177° | - | - |
| 1778053802 | 16.67° C | 70% | 1013.8 hPa | 0 mm | 5.36 m/s, 175° | - | - |
| 1778053502 | 16.67° C | 69% | 1013.8 hPa | 0 mm | 5.36 m/s, 180° | - | - |
| 1778052902 | 16.67° C | 69% | 1013.6 hPa | 0 mm | 5.81 m/s, 177° | - | - |
| 1778052602 | 16.67° C | 69% | 1013.4 hPa | 0 mm | 5.36 m/s, 176° | - | - |
| 1778052302 | 16.67° C | 69% | 1013.2 hPa | 0 mm | 4.92 m/s, 176° | - | - |
| 1778051702 | 16.67° C | 69% | 1013.4 hPa | 0 mm | 5.81 m/s, 178° | - | - |
| 1778051402 | 16.67° C | 69% | 1013.5 hPa | 0 mm | 5.81 m/s, 180° | - | - |
| 1778051102 | 16.67° C | 69% | 1013.5 hPa | 0 mm | 5.36 m/s, 176° | - | - |
| 1778050803 | 16.67° C | 69% | 1013.5 hPa | 0 mm | 5.81 m/s, 178° | - | - |
| 1778050202 | 16.67° C | 68% | 1013.8 hPa | 0 mm | 5.36 m/s, 173° | - | - |
| 1778049902 | 16.67° C | 68% | 1013.8 hPa | 0 mm | 5.36 m/s, 175° | - | - |
| 1778049002 | 16.67° C | 68% | 1014 hPa | 0 mm | 5.81 m/s, 181° | - | - |
| 1778048702 | 16.67° C | 68% | 1013.8 hPa | 0 mm | 5.81 m/s, 180° | - | - |
| 1778048403 | 16.67° C | 68% | 1013.8 hPa | 0 mm | 4.92 m/s, 175° | - | - |
| 1778048103 | 16.67° C | 68% | 1013.9 hPa | 0 mm | 5.36 m/s, 180° | - | - |
| 1778047803 | 17.22° C | 68% | 1014.1 hPa | 0 mm | 5.81 m/s, 175° | - | - |
* Rain latest hour (hover to see other rain measurements)
** Current wind speed in m/s (hover to see current wind gust speed)